HG5OJG-6 Weather Reports


Display with metric or nautical units.
time (UTC)temp
F
wind
direction
speed
MPH
gust
MPH
rain 1hr
in
rain 24hr
in
rain mn
in
humidity
%
barometer
mb
20260905230610 65 256 3.0 6.0 0.00 0.01 0.00 61 1021.0
20260905225625 66 277 4.0 6.0 0.00 0.01 0.00 61 1020.9
20260905224629 66 298 3.0 6.0 0.00 0.01 0.00 60 1020.8
20260905223651 66 296 4.0 6.0 0.00 0.01 0.00 61 1021.0
20260905222607 66 277 4.0 7.0 0.00 0.01 0.00 61 1021.0
20260905221711 65 298 4.0 7.0 0.00 0.01 0.00 61 1020.9
20260905220634 65 283 4.0 6.0 0.00 0.01 0.00 61 1020.9
20260905215649 65 296 3.0 6.0 0.00 0.01 0.01 61 1020.8
20260905214713 65 285 3.0 8.0 0.00 0.01 0.01 61 1020.7
20260905213655 65 299 3.0 7.0 0.00 0.01 0.01 61 1020.7
20260905212620 65 305 3.0 8.0 0.00 0.01 0.01 61 1020.6
20260905211520 65 277 3.0 4.0 0.00 0.01 0.01 61 1020.5
20260905210618 65 288 2.0 4.0 0.00 0.01 0.01 60 1020.4
20260905205537 66 286 2.0 6.0 0.00 0.01 0.01 59 1020.5
20260905204541 66 284 2.0 4.0 0.00 0.01 0.01 59 1020.5
20260905203545 67 263 3.0 7.0 0.00 0.01 0.01 59 1020.4
20260905202549 67 274 4.0 8.0 0.00 0.01 0.01 59 1020.4
20260905201522 67 275 3.0 7.0 0.00 0.01 0.01 58 1020.4
20260905200518 67 286 2.0 6.0 0.00 0.01 0.01 57 1020.0
20260905195521 68 267 3.0 6.0 0.00 0.01 0.01 57 1019.9
20260905194527 68 279 3.0 4.0 0.00 0.01 0.01 56 1019.8
20260905193549 69 279 2.0 4.0 0.00 0.01 0.01 56 1019.5
20260905192715 69 280 3.0 6.0 0.00 0.01 0.01 55 1019.6
20260905191528 69 305 4.0 8.0 0.00 0.01 0.01 55 1019.4
20260905190552 69 301 5.0 9.0 0.00 0.01 0.01 55 1019.3
20260905185556 69 310 4.0 8.0 0.00 0.01 0.01 55 1019.4
20260905184619 69 323 3.0 7.0 0.00 0.01 0.01 55 1019.4
20260905183704 68 322 5.0 9.0 0.00 0.01 0.01 55 1019.1
20260905182537 68 308 2.0 6.0 0.00 0.01 0.01 54 1018.9
20260905181620 69 311 2.0 4.0 0.00 0.01 0.01 54 1018.8
20260905180544 69 310 2.0 4.0 0.00 0.01 0.01 53 1018.8
20260905175606 70 303 2.0 4.0 0.00 0.01 0.01 52 1018.7
20260905174610 70 302 2.0 6.0 0.00 0.01 0.01 51 1018.4
20260905173605 71 312 2.0 6.0 0.00 0.01 0.01 50 1018.3
20260905172541 72 318 1.0 3.0 0.00 0.01 0.01 49 1018.2
20260905171624 73 303 2.0 4.0 0.00 0.01 0.01 48 1018.1
20260905170608 73 291 2.0 7.0 0.00 0.01 0.01 47 1018.1
20260905165612 74 301 4.0 9.0 0.00 0.01 0.01 47 1018.0
20260905164617 74 296 5.0 9.0 0.00 0.01 0.01 46 1017.9
20260905163610 74 279 6.0 10.0 0.00 0.01 0.01 46 1017.9
20260905162617 75 291 6.0 14.0 0.00 0.01 0.01 45 1018.1
20260905161559 75 300 5.0 13.0 0.00 0.01 0.01 44 1018.0
20260905160603 76 326 5.0 13.0 0.00 0.01 0.01 44 1018.0
20260905155627 76 266 5.0 14.0 0.00 0.01 0.01 43 1018.0
20260905154621 76 312 5.0 9.0 0.00 0.01 0.01 43 1018.1
20260905153606 75 287 5.0 11.0 0.00 0.01 0.01 43 1017.9
20260905152610 76 282 6.0 11.0 0.00 0.01 0.01 42 1017.7
20260905151634 75 297 6.0 11.0 0.00 0.01 0.01 42 1018.0
20260905150638 76 313 7.0 16.0 0.00 0.01 0.01 41 1018.1
20260905145633 76 307 8.0 17.0 0.00 0.01 0.01 40 1017.8
20260905144617 77 311 6.0 13.0 0.00 0.01 0.01 40 1017.8
20260905143518 78 320 6.0 16.0 0.00 0.01 0.01 38 1017.8
20260905142520 79 295 8.0 13.0 0.00 0.01 0.01 38 1017.6
20260905141524 80 331 6.0 15.0 0.00 0.01 0.01 37 1017.6
20260905140601 80 304 9.0 22.0 0.00 0.01 0.01 36 1017.9
20260905135543 80 313 8.0 15.0 0.00 0.01 0.01 37 1017.6
20260905134527 79 324 5.0 14.0 0.00 0.01 0.01 36 1017.6
20260905133609 80 301 9.0 18.0 0.00 0.01 0.01 36 1017.6
20260905132533 79 299 9.0 16.0 0.00 0.01 0.01 37 1017.6
20260905131527 79 344 6.0 17.0 0.00 0.01 0.01 37 1017.6
20260905130541 79 313 9.0 21.0 0.00 0.01 0.01 37 1017.5
20260905125605 79 312 8.0 18.0 0.00 0.01 0.01 39 1017.7
20260905124611 79 316 9.0 17.0 0.00 0.01 0.01 40 1017.6
20260905123554 78 280 9.0 14.0 0.00 0.01 0.01 41 1017.7
20260905122618 76 322 10.0 19.0 0.00 0.01 0.01 45 1017.9
20260905121552 74 307 6.0 16.0 0.00 0.01 0.01 51 1018.0
20260905120617 71 306 4.0 8.0 0.01 0.01 0.01 56 1018.0
20260905115540 71 293 4.0 10.0 0.01 0.01 0.01 57 1018.0
20260905114544 69 327 6.0 15.0 0.01 0.01 0.01 61 1018.1
20260905113609 68 310 2.0 6.0 0.01 0.01 0.01 60 1018.2
20260905112543 70 317 5.0 9.0 0.01 0.01 0.01 56 1018.4
20260905111626 72 314 6.0 17.0 0.00 0.00 0.00 50 1018.3
20260905110631 74 336 6.0 13.0 0.00 0.00 0.00 43 1018.0
20260905105553 75 310 8.0 15.0 0.00 0.00 0.00 41 1017.8
20260905104617 76 320 8.0 15.0 0.00 0.00 0.00 41 1017.6
20260905103550 76 289 6.0 14.0 0.00 0.00 0.00 41 1017.6
20260905102544 76 320 8.0 16.0 0.00 0.00 0.00 40 1017.7
20260905101548 77 322 9.0 19.0 0.00 0.00 0.00 40 1017.8
20260905100612 77 328 10.0 25.0 0.00 0.00 0.00 39 1017.8
20260905095616 77 330 8.0 19.0 0.00 0.00 0.00 41 1017.9
20260905094601 77 324 6.0 11.0 0.00 0.00 0.00 42 1018.0
20260905093554 77 347 7.0 15.0 0.00 0.00 0.00 41 1018.0
20260905092617 77 336 8.0 14.0 0.00 0.00 0.00 41 1018.1
20260905091621 78 316 9.0 21.0 0.00 0.00 0.00 40 1018.2
20260905090558 78 324 10.0 23.0 0.00 0.00 0.00 42 1018.0
20260905085717 78 339 11.0 22.0 0.00 0.00 0.00 43 1018.1
20260905084601 77 337 9.0 18.0 0.00 0.00 0.00 48 1017.9
20260905083555 76 347 8.0 18.0 0.00 0.00 0.00 50 1017.6
20260905082620 76 330 11.0 25.0 0.00 0.00 0.00 48 1017.5
20260905081604 76 322 11.0 29.0 0.00 0.00 0.00 51 1017.3
20260905080608 75 333 12.0 18.0 0.00 0.00 0.00 53 1017.0
20260905075652 76 334 9.0 23.0 0.00 0.00 0.00 51 1016.6
20260905074647 76 323 10.0 22.0 0.00 0.00 0.00 51 1016.3
20260905073650 78 285 12.0 23.0 0.00 0.00 0.00 49 1015.8
20260905072634 79 306 7.0 21.0 0.00 0.00 0.00 48 1015.7
20260905071659 81 343 8.0 17.0 0.00 0.00 0.00 46 1015.0
20260905070517 82 292 9.0 21.0 0.00 0.00 0.00 45 1014.8
20260905065737 82 310 13.0 23.0 0.00 0.00 0.00 45 1014.5
20260905064701 82 322 12.0 26.0 0.00 0.00 0.00 44 1014.2
20260905063538 82 326 6.0 13.0 0.00 0.00 0.00 46 1014.0
20260905062659 79 290 7.0 11.0 0.00 0.00 0.00 49 1013.9
20260905061537 76 281 3.0 7.0 0.00 0.00 0.00 55 1013.7
20260905060542 75 256 1.0 3.0 0.00 0.00 0.00 55 1013.5
20260905055555 75 263 1.0 4.0 0.00 0.00 0.00 56 1013.5
20260905054539 73 151 0.0 1.0 0.00 0.00 0.00 59 1013.6
20260905053543 72 135 2.0 3.0 0.00 0.00 0.00 59 1013.4
20260905052527 71 0.0 0.0 0.00 0.00 0.00 60 1013.1
20260905051552 70 252 1.0 2.0 0.00 0.00 0.00 60 1013.2
20260905050526 69 267 3.0 6.0 0.00 0.00 0.00 61 1013.2
20260905045550 68 247 3.0 4.0 0.00 0.00 0.00 62 1012.9
20260905044534 67 256 2.0 4.0 0.00 0.00 0.00 62 1012.9
20260905043539 68 249 1.0 3.0 0.00 0.00 0.00 61 1012.9
20260905042542 68 210 2.0 6.0 0.00 0.00 0.00 60 1012.9
20260905041536 69 155 2.0 4.0 0.00 0.00 0.00 58 1012.7
20260905040601 70 268 1.0 2.0 0.00 0.00 0.00 57 1012.6
20260905035544 71 281 2.0 3.0 0.00 0.00 0.00 56 1012.4
20260905034546 71 294 3.0 4.0 0.00 0.00 0.00 56 1012.4
20260905033611 72 289 3.0 6.0 0.00 0.00 0.00 56 1012.4
20260905032728 72 297 3.0 6.0 0.00 0.00 0.00 55 1012.4
20260905031539 72 296 4.0 8.0 0.00 0.00 0.00 55 1012.4
20260905030644 71 316 4.0 8.0 0.00 0.00 0.00 56 1012.4
20260905025548 71 325 4.0 10.0 0.00 0.00 0.00 56 1012.4
20260905024552 71 300 4.0 9.0 0.00 0.00 0.00 56 1012.5
20260905023558 71 321 5.0 10.0 0.00 0.00 0.00 57 1012.5
20260905022550 70 312 6.0 9.0 0.00 0.00 0.00 58 1012.3
20260905021554 69 309 5.0 11.0 0.00 0.00 0.00 60 1012.5
20260905020638 67 304 7.0 13.0 0.00 0.00 0.00 61 1012.4
20260905015623 66 293 3.0 6.0 0.00 0.00 0.00 60 1012.5
20260905014607 67 270 2.0 3.0 0.00 0.00 0.00 59 1012.6
20260905013640 67 261 2.0 3.0 0.00 0.00 0.00 59 1012.5
20260905012604 67 258 1.0 2.0 0.00 0.00 0.00 59 1012.5
20260905011608 67 238 2.0 3.0 0.00 0.00 0.00 59 1012.4
20260905010613 67 236 1.0 3.0 0.00 0.00 0.00 59 1012.4
20260905005617 67 245 2.0 4.0 0.00 0.00 0.00 59 1012.4
20260905004611 67 240 2.0 3.0 0.00 0.00 0.00 59 1012.5
20260905003633 67 270 1.0 2.0 0.00 0.00 0.00 58 1012.4
20260905002618 68 274 1.0 1.0 0.00 0.00 0.00 57 1012.4
20260905001633 68 274 0.0 1.0 0.00 0.00 0.00 56 1012.6
20260905000617 69 274 0.0 1.0 0.00 0.00 0.00 55 1012.5
20260904235516 70 273 1.0 2.0 0.00 0.00 0.00 54 1012.7
20260904234614 70 252 1.0 3.0 0.00 0.00 0.00 53 1012.9
20260904233618 70 249 2.0 3.0 0.00 0.00 0.00 53 1012.8
20260904232517 71 238 2.0 4.0 0.00 0.00 0.00 53 1013.0